User: anonymous   Login
Location: South Tamworth Observatory
(43.8246°N, 71.3026°W)
Time: 20:45:23
(UTC-05:00)
Language:

Cosmos 1844 - Orbit

View from above orbital plane
View from above orbital plane
View from above satellite
View from above satellite

Ground track
Ground track

The orbit data is extracted from the following two-line orbital elements,

1 17973U 87041A   18055.52951180  .00000157  00000-0  10751-3 0  9997
2 17973  70.8972 101.7440 0029029 108.8954 251.5319 14.14057501588810
Epoch (UTC): 24 February 2018 12:42:29
Eccentricity: 0.0029029
inclination: 70.8972°
perigee height: 824 km
apogee height: 866 km
right ascension of ascending node: 101.7440°
argument of perigee: 108.8954°
revolutions per day: 14.14057501
mean anomaly at epoch: 251.5319°
orbit number at epoch: 58881

The dashed part of the orbit path shows where the satellite is in the earth's shadow,  

DLR